Theta_e
327 326 327 326 326 326 328 329 329 330 331 330 328 327 326 326 326 328 331 335 337 339 339 339 339 340 341 341 342 347 349 346 345 344 342 343 346 348 349 350 351 352
327 327 326 326 326 326 326 327 327 327 327 327 327 326 325 325 326 326 327 329 333 336 337 337 338 338 340 341 340 342 344 342 342 342 342 341 342 344 346 349 351 352
330 327 326 325 325 325 325 326 326 326 326 326 326 326 326 326 326 326 326 327 329 331 335 337 338 338 339 340 339 340 341 340 339 341 341 340 340 341 343 346 350 352
335 331 328 326 325 325 325 326 325 325 325 325 325 325 326 326 325 325 325 326 326 327 330 333 336 337 339 340 338 339 339 339 338 339 339 338 339 339 340 341 345 350
339 336 333 330 328 326 325 325 325 325 325 324 324 324 325 325 325 326 326 327 327 327 327 329 332 334 336 339 339 338 338 338 337 337 337 337 338 338 339 339 341 345
341 339 337 335 332 330 328 326 326 326 326 325 325 324 324 324 325 325 326 328 328 328 328 327 328 330 333 336 338 338 338 337 336 337 337 337 337 336 337 339 339 340
343 341 339 337 336 334 332 330 329 329 329 328 327 326 325 325 325 325 326 328 331 332 331 329 328 329 330 333 335 336 337 337 337 336 336 336 336 336 335 336 339 339
346 343 340 339 337 337 335 333 332 332 331 330 329 328 327 326 326 326 325 328 332 334 333 332 330 330 331 332 333 334 335 336 336 335 335 335 335 335 335 335 336 338
349 345 342 340 340 339 338 337 336 335 334 333 332 330 329 327 326 326 326 327 331 333 333 333 331 331 332 332 332 333 333 334 335 334 334 334 334 335 336 336 336 336
352 349 345 342 341 341 341 339 338 337 336 335 333 333 331 329 327 328 328 328 330 331 331 332 332 331 331 332 333 333 333 333 334 334 333 333 333 334 335 337 337 336
354 351 348 345 343 342 342 341 340 338 337 336 335 335 334 331 329 331 332 331 330 329 329 330 330 330 330 330 331 332 333 333 334 333 333 333 333 333 334 335 336 336
356 353 350 347 344 343 342 342 342 339 337 335 335 335 336 334 332 333 334 334 332 331 330 329 329 329 329 329 330 331 331 332 333 333 333 332 332 332 333 334 334 333
357 354 352 348 345 344 343 343 342 341 338 336 335 336 337 338 336 335 335 335 335 334 333 331 330 330 331 330 329 330 330 330 331 332 332 332 332 331 332 332 332 331
358 356 353 349 346 344 344 344 343 342 340 338 337 337 337 339 338 336 336 336 337 336 335 334 333 333 332 331 331 331 331 331 331 331 332 332 332 332 331 331 330 329
359 356 355 352 349 346 345 345 343 343 343 341 340 338 338 338 338 338 337 338 339 339 338 337 337 336 334 333 333 332 333 333 332 332 332 332 332 332 331 331 329 329
360 358 356 354 352 348 345 345 343 343 345 345 343 341 340 340 340 340 340 340 340 340 339 340 339 338 336 334 333 333 333 334 334 333 333 332 332 332 332 331 329 329
362 359 357 355 353 349 347 345 344 344 345 346 345 345 345 344 343 344 345 343 343 342 341 340 339 338 336 336 335 334 334 335 334 333 333 332 332 332 331 330 329 328
363 360 358 356 353 351 348 346 346 346 345 347 347 347 348 348 347 347 348 348 346 345 344 342 339 337 336 334 334 334 334 335 335 334 333 333 332 332 331 330 329 328
363 361 359 357 355 353 351 349 348 348 348 348 348 348 349 350 350 349 350 352 351 350 348 345 342 340 337 335 334 333 333 334 334 335 334 333 331 331 332 331 330 330
364 363 360 358 356 355 353 352 350 350 349 350 350 350 350 351 351 350 351 352 353 353 352 349 345 342 340 338 335 333 332 332 333 333 333 332 332 331 331 332 331 330
364 364 361 359 358 357 356 354 352 351 351 351 352 353 352 351 351 352 352 351 352 353 353 352 350 346 343 342 338 335 334 334 334 334 333 333 331 331 331 332 332 332
365 364 362 360 358 358 356 356 354 352 352 353 353 354 354 353 353 353 353 351 351 352 353 353 352 350 348 347 342 339 337 338 338 337 336 334 332 331 333 332 332 333
364 364 363 361 359 358 357 356 356 353 351 353 355 355 354 355 354 354 354 353 351 351 352 353 353 353 351 350 347 344 344 344 343 342 339 336 333 332 333 334 334 334
364 363 363 361 360 358 357 357 356 355 353 352 354 356 355 354 354 354 355 354 352 351 351 352 353 353 353 351 350 349 349 349 349 347 344 339 335 335 336 337 336 334
364 363 363 362 361 359 358 357 357 357 356 353 353 355 355 355 355 355 355 355 354 352 351 350 352 352 352 352 351 351 352 352 353 353 350 345 340 338 338 338 337 335
364 363 363 362 361 360 359 358 358 358 357 356 354 354 355 355 355 355 354 355 354 354 353 352 351 351 351 352 352 352 352 353 355 355 353 350 345 342 339 338 337 335
Wind_Speed
37 38 38 37 34 32 31 30 28 27 27 25 23 19 16 14 12 12 12 13 14 13 13 12 11 11 11 10 12 13 12 10 8 6 7 8 8 7 7 7 8 7
39 39 38 38 37 35 33 31 30 28 28 27 25 22 19 16 14 14 13 12 13 14 14 13 12 12 12 11 11 12 13 11 9 8 7 7 7 8 8 8 8 7
41 40 40 39 38 37 35 33 32 30 29 28 26 25 23 20 18 17 16 14 13 13 13 14 13 13 13 13 12 12 13 12 10 10 9 7 7 8 8 8 8 7
41 41 41 40 39 38 36 35 34 33 31 30 28 26 25 23 21 20 19 18 16 14 14 14 14 13 12 13 13 13 13 13 12 11 11 9 8 8 8 9 9 9
40 41 41 41 40 39 38 38 36 35 33 32 30 28 27 25 24 23 22 21 20 18 16 16 15 14 14 13 14 13 13 13 13 13 12 11 9 9 9 9 9 9
42 41 41 41 41 40 40 40 38 37 35 33 32 30 29 27 26 25 24 23 22 21 20 18 17 17 16 15 15 14 14 14 14 13 14 12 11 10 10 10 10 10
45 43 42 41 41 41 41 41 40 39 37 35 34 32 31 29 28 27 26 24 23 23 22 20 19 18 18 17 17 16 15 15 15 14 14 14 13 12 12 12 11 11
46 45 44 43 42 42 41 41 41 40 39 38 36 34 33 31 30 29 28 27 25 24 23 22 20 19 19 18 18 18 17 17 16 16 15 15 15 14 13 13 13 12
47 46 45 44 43 43 42 41 41 40 39 39 38 37 35 33 32 31 30 29 28 27 25 24 22 21 20 20 19 19 19 19 18 18 16 16 15 14 13 13 13 13
48 47 47 46 45 44 43 41 40 39 39 40 39 38 37 35 33 32 32 31 30 30 28 27 25 23 22 22 20 19 19 19 19 19 19 17 16 15 14 14 14 14
49 49 48 48 46 45 43 42 40 39 39 39 40 39 38 36 35 34 33 33 32 32 30 29 27 25 24 24 22 21 20 19 19 19 20 19 18 16 15 16 16 15
49 50 50 49 48 46 44 42 41 40 39 39 40 40 39 37 36 35 35 34 34 33 32 30 29 27 26 25 24 23 22 21 20 19 19 20 19 19 18 17 17 16
49 51 51 51 49 47 45 43 42 41 40 39 39 39 39 38 37 36 35 35 34 34 33 31 30 29 28 27 26 25 24 23 22 21 20 19 19 19 19 19 18 17
48 51 51 51 50 48 46 44 43 42 40 39 39 39 39 39 38 37 36 35 35 34 33 32 31 30 30 29 28 27 26 25 24 22 21 20 20 20 19 19 18 18
47 49 50 51 50 49 47 46 44 43 41 40 39 39 39 39 39 37 36 36 35 34 34 33 33 32 31 30 29 28 28 27 26 24 23 22 21 20 20 19 18 17
46 48 50 51 51 50 48 47 45 43 42 41 40 39 38 39 39 39 38 36 35 35 34 34 34 33 33 32 30 29 29 28 28 26 25 23 22 21 21 20 18 17
45 48 50 50 51 51 49 47 46 44 43 42 41 39 38 38 39 40 40 38 36 35 34 34 34 34 33 32 31 30 30 29 29 28 26 26 24 23 22 21 20 19
46 47 49 51 51 52 50 48 47 46 44 43 42 41 39 38 39 41 41 39 38 36 35 34 33 32 32 32 31 31 30 30 30 29 28 27 26 25 24 22 21 21
47 47 49 51 51 51 50 48 47 47 46 45 44 42 40 39 39 40 41 40 39 37 36 34 32 31 30 30 29 29 29 29 29 29 29 28 28 27 26 25 24 23
48 48 49 50 51 51 50 49 49 48 47 46 45 44 43 41 40 39 40 41 40 38 37 36 33 31 29 28 27 27 27 28 28 28 29 29 29 28 28 27 26 25
49 48 49 50 50 50 50 50 50 49 48 47 46 45 45 43 42 40 40 40 41 40 38 37 35 32 30 28 26 26 26 28 28 29 29 29 29 29 29 29 28 27
51 49 49 50 50 50 50 50 50 50 49 48 46 46 45 44 43 42 40 40 41 41 40 38 37 34 31 29 26 24 25 27 28 29 29 29 29 29 30 30 29 29
53 51 50 50 51 51 51 51 51 50 50 49 47 46 46 45 45 44 42 40 40 41 42 40 38 36 33 31 28 26 25 25 26 27 28 29 29 30 31 31 31 30
54 53 52 51 51 52 52 51 51 50 50 50 48 47 46 45 45 44 43 41 40 41 42 41 39 37 35 33 31 28 26 25 25 25 25 27 28 30 32 33 33 32
55 54 53 52 52 52 52 51 50 50 49 50 49 48 45 44 44 43 43 42 41 41 41 42 41 39 37 35 33 30 29 27 27 26 26 26 27 28 30 32 34 34
56 55 53 53 52 51 51 51 50 49 48 49 50 48 45 43 43 43 43 43 42 41 41 41 42 41 40 38 35 33 32 30 30 30 29 29 28 28 28 29 31 33
Wind_Direction
212 211 212 214 216 216 214 211 209 209 212 215 219 223 224 222 220 220 217 213 212 217 217 213 209 204 202 201 197 201 211 221 228 216 193 189 194 196 187 177 180 184
214 215 215 216 218 219 220 219 218 218 219 221 222 225 228 229 228 228 227 220 213 215 220 221 218 214 210 211 209 209 216 222 225 225 217 206 203 205 202 192 187 197
216 217 218 218 219 220 221 223 224 225 226 226 226 225 226 228 229 231 232 231 225 217 218 221 222 220 217 219 219 216 218 222 219 221 225 220 217 216 214 208 199 200
217 218 219 220 221 221 222 223 225 227 228 229 229 228 227 227 228 229 231 232 234 229 223 222 223 224 222 222 224 221 220 221 217 217 224 222 219 222 222 222 213 207
219 219 220 221 222 222 223 224 226 227 228 229 230 230 229 228 227 226 226 228 232 233 230 227 225 227 226 225 227 225 223 222 218 215 221 223 219 220 224 230 227 219
219 220 221 222 223 223 223 225 227 228 229 229 229 230 230 229 229 227 226 226 229 231 232 230 227 226 228 228 229 230 227 226 224 219 220 222 223 224 226 230 235 235
219 220 222 222 223 224 225 226 227 229 230 231 230 230 230 229 229 229 229 228 229 231 232 231 227 226 228 228 229 231 230 229 230 226 223 223 225 228 230 230 233 238
220 221 222 223 223 223 225 226 227 228 230 231 231 230 229 228 228 229 231 231 231 233 235 234 230 226 227 229 230 232 231 230 230 229 228 226 225 227 232 235 235 238
221 221 221 222 222 223 225 225 226 227 228 229 230 230 229 228 227 227 230 231 232 234 236 237 235 229 226 229 231 233 232 230 229 230 232 231 228 226 228 235 239 241
220 220 220 221 222 223 224 225 225 226 226 227 228 229 229 229 227 226 228 230 231 233 235 237 237 233 229 229 232 234 233 232 231 231 234 235 235 232 228 230 236 240
220 219 219 220 222 223 224 224 225 225 224 225 225 226 228 228 227 225 226 228 230 233 235 236 237 236 232 231 233 235 235 235 235 233 233 236 238 239 235 232 234 239
219 219 219 220 221 223 224 224 224 224 223 223 223 224 224 226 227 226 225 227 229 232 235 235 236 236 234 233 233 236 238 239 238 236 235 236 237 239 241 239 239 240
218 219 220 220 221 223 224 223 223 223 223 222 222 222 222 222 225 226 226 227 228 231 234 235 236 235 234 234 234 235 238 240 241 240 239 238 239 240 242 244 246 247
219 220 219 220 221 222 222 222 222 221 222 223 222 222 222 221 223 225 227 228 229 231 233 234 235 234 233 233 234 235 238 240 241 242 242 242 243 243 243 245 247 250
218 219 219 219 219 220 221 221 221 220 220 222 222 222 222 221 222 225 227 228 229 230 231 233 233 233 233 234 234 235 237 239 241 243 244 246 247 247 246 245 245 246
218 218 218 218 219 220 220 220 221 219 218 219 222 223 222 220 220 223 225 227 229 229 229 231 232 233 234 235 236 238 239 241 241 243 245 246 249 250 249 247 247 247
218 218 218 218 219 220 221 220 219 219 217 218 221 223 223 220 218 220 223 226 228 230 230 230 232 233 234 235 237 239 240 242 243 244 245 246 248 250 252 252 251 251
218 218 218 218 219 220 221 219 217 217 216 216 219 222 223 221 218 217 221 225 227 229 231 232 233 234 235 235 236 238 240 242 244 245 245 247 249 250 253 255 254 254
219 219 219 219 219 220 220 219 216 215 216 216 217 220 222 222 220 217 218 222 226 228 231 233 235 235 235 236 236 237 239 241 243 245 246 247 249 251 252 254 255 255
220 220 220 220 220 219 219 219 217 215 216 216 215 217 219 221 222 219 217 219 225 228 231 234 236 237 236 236 235 235 237 239 241 243 245 247 249 251 252 254 255 257
222 222 222 220 220 219 219 219 218 216 215 215 214 215 218 221 222 221 218 218 221 227 231 234 237 239 239 237 236 235 235 237 239 241 243 245 247 250 252 254 256 258
223 223 222 221 219 219 219 219 219 217 215 214 214 215 218 220 222 222 221 218 219 223 228 232 236 239 241 240 239 238 236 237 238 240 242 243 245 248 250 252 255 257
221 222 222 221 219 218 219 219 219 218 216 214 213 214 217 219 221 222 223 221 219 220 224 229 233 237 240 241 242 242 239 237 237 239 241 241 242 245 247 249 252 254
219 220 221 221 220 219 220 220 219 219 217 214 213 214 216 219 221 222 223 223 222 221 222 226 229 234 237 240 242 243 242 240 239 238 239 240 241 242 244 246 248 251
219 218 218 220 222 221 220 220 219 219 218 215 214 214 216 218 220 221 221 223 224 224 224 225 227 230 234 237 239 241 241 241 241 240 241 242 242 243 243 244 245 249
219 218 217 218 221 223 221 220 220 219 218 217 215 215 215 217 219 221 221 222 224 225 226 226 227 228 230 233 235 237 238 239 239 240 242 245 248 248 248 247 246 248